Find Jilin-1 GaoFen 03D 03 xing

NORAD ID: 49006 Int'l Des: 2021-061 Owner: CGSTL Country: CN Constellation: jilin-1 operational
LEOCIRCULARRETROGRADE

Live Position

Loading 3D Globe...

About Jilin-1 GaoFen 03D 03 xing

Description loading...

Upcoming Passes

Passes for default location (London). Set your location on the main map for personalized predictions.

Altitude History

Loading altitude history...

Two-Line Element Set

1 49006U 21061D 26111.60141663 .03650313 24124-5 88567-3 0 9993
2 49006 97.2750 192.0901 0013124 258.9261 101.0557 16.29177187267381
Epoch: Apr 21, 2026 • Age: 11 hours

Current Status

Altitude 189.4 km
Velocity 7.79 km/s
Sub-Earth Point -23.26°S, 135.74°E
Launch Date Jul 3, 2021
Age 4.8 years
Type earth observation

Technical Details

Classification Payload
Mass 42.00 kg
Dry Mass 42.00 kg
Total Mass 42.00 kg
Length 1.50 m
Diameter 1.00 m
Span 1.50 m
Shape Box
Manufacturer CGSTL
Bus Type JL-1
Phase Status In Orbit
Owner/State CGSTL/CN

Most Searched